#Datum;Uhrzeit;WR;Pac;DaySum;Status;WR;Pac;DaySum;Status;Pdc1;Udc;Temp;WR;Pac;DaySum;Status;Pdc1;Udc;Temp;WR;Pac;DaySum;Status;Pdc1;Udc;Temp;WR;Pac;DaySum;Status;Pdc1;Pdc2;Udc1;Udc2;Temp;WR;Pac;DaySum;Status;Pdc1;Pdc2;Udc1;Udc2;Temp;WR;Pac;DaySum;Status;Pdc1;Udc;Temp;WR;Pac;DaySum;Status;Pdc1;Udc;Temp;WR;Pac;DaySum;Status;Pdc1;Udc;Temp
23.10.20;23:55:00;1;273;10255;0;2;0;12831;0;0;0;0;3;0;8377;0;0;0;0;4;0;11970;0;0;0;0;5;0;0;0;0;0;0;0;0;6;0;21591;0;0;0;0;0;0;7;0;18444;0;0;0;0;8;0;8973;0;0;0;0;9;0;9991;0;0;0;0
23.10.20;23:50:00;1;252;10233;0;2;0;12831;0;0;0;0;3;0;8377;0;0;0;0;4;0;11970;0;0;0;0;5;0;0;0;0;0;0;0;0;6;0;21591;0;0;0;0;0;0;7;0;18444;0;0;0;0;8;0;8973;0;0;0;0;9;0;9991;0;0;0;0
23.10.20;23:45:00;1;237;10211;0;2;0;12831;0;0;0;0;3;0;8377;0;0;0;0;4;0;11970;0;0;0;0;5;0;0;0;0;0;0;0;0;6;0;21591;0;0;0;0;0;0;7;0;18444;0;0;0;0;8;0;8973;0;0;0;0;9;0;9991;0;0;0;0
23.10.20;23:40:00;1;243;10191;0;2;0;12831;0;0;0;0;3;0;8377;0;0;0;0;4;0;11970;0;0;0;0;5;0;0;0;0;0;0;0;0;6;0;21591;0;0;0;0;0;0;7;0;18444;0;0;0;0;8;0;8973;0;0;0;0;9;0;9991;0;0;0;0
23.10.20;23:35:00;1;291;10171;0;2;0;12831;0;0;0;0;3;0;8377;0;0;0;0;4;0;11970;0;0;0;0;5;0;0;0;0;0;0;0;0;6;0;21591;0;0;0;0;0;0;7;0;18444;0;0;0;0;8;0;8973;0;0;0;0;9;0;9991;0;0;0;0
23.10.20;23:30:00;1;284;10147;0;2;0;12831;0;0;0;0;3;0;8377;0;0;0;0;4;0;11970;0;0;0;0;5;0;0;0;0;0;0;0;0;6;0;21591;0;0;0;0;0;0;7;0;18444;0;0;0;0;8;0;8973;0;0;0;0;9;0;9991;0;0;0;0
23.10.20;23:25:00;1;345;10123;0;2;0;12831;0;0;0;0;3;0;8377;0;0;0;0;4;0;11970;0;0;0;0;5;0;0;0;0;0;0;0;0;6;0;21591;0;0;0;0;0;0;7;0;18444;0;0;0;0;8;0;8973;0;0;0;0;9;0;9991;0;0;0;0
23.10.20;23:20:00;1;262;10095;0;2;0;12831;0;0;0;0;3;0;8377;0;0;0;0;4;0;11970;0;0;0;0;5;0;0;0;0;0;0;0;0;6;0;21591;0;0;0;0;0;0;7;0;18444;0;0;0;0;8;0;8973;0;0;0;0;9;0;9991;0;0;0;0
23.10.20;23:15:00;1;283;10072;0;2;0;12831;0;0;0;0;3;0;8377;0;0;0;0;4;0;11970;0;0;0;0;5;0;0;0;0;0;0;0;0;6;0;21591;0;0;0;0;0;0;7;0;18444;0;0;0;0;8;0;8973;0;0;0;0;9;0;9991;0;0;0;0
23.10.20;23:10:00;1;311;10049;0;2;0;12831;0;0;0;0;3;0;8377;0;0;0;0;4;0;11970;0;0;0;0;5;0;0;0;0;0;0;0;0;6;0;21591;0;0;0;0;0;0;7;0;18444;0;0;0;0;8;0;8973;0;0;0;0;9;0;9991;0;0;0;0
23.10.20;23:05:00;1;261;10023;0;2;0;12831;0;0;0;0;3;0;8377;0;0;0;0;4;0;11970;0;0;0;0;5;0;0;0;0;0;0;0;0;6;0;21591;0;0;0;0;0;0;7;0;18444;0;0;0;0;8;0;8973;0;0;0;0;9;0;9991;0;0;0;0
23.10.20;23:00:00;1;295;10000;0;2;0;12831;0;0;0;0;3;0;8377;0;0;0;0;4;0;11970;0;0;0;0;5;0;0;0;0;0;0;0;0;6;0;21591;0;0;0;0;0;0;7;0;18444;0;0;0;0;8;0;8973;0;0;0;0;9;0;9991;0;0;0;0
23.10.20;22:55:00;1;371;9976;0;2;0;12831;0;0;0;0;3;0;8377;0;0;0;0;4;0;11970;0;0;0;0;5;0;0;0;0;0;0;0;0;6;0;21591;2;0;0;0;0;0;7;0;18444;0;0;0;0;8;0;8973;0;0;0;0;9;0;9991;0;0;0;0
23.10.20;22:50:00;1;404;9947;0;2;0;12831;0;0;0;0;3;0;8377;0;0;0;0;4;0;11970;0;0;0;0;5;0;0;0;0;0;0;0;0;6;0;21591;2;0;0;0;0;0;7;0;18444;0;0;0;0;8;0;8973;0;0;0;0;9;0;9991;0;0;0;0
23.10.20;22:45:00;1;420;9913;0;2;0;12831;0;0;0;0;3;0;8377;0;0;0;0;4;0;11970;0;0;0;0;5;0;0;0;0;0;0;0;0;6;0;21591;2;0;0;0;0;0;7;0;18444;0;0;0;0;8;0;8973;0;0;0;0;9;0;9991;0;0;0;0
23.10.20;22:40:00;1;423;9878;0;2;0;12831;0;0;0;0;3;0;8377;0;0;0;0;4;0;11970;0;0;0;0;5;0;0;0;0;0;0;0;0;6;0;21591;2;0;0;0;0;0;7;0;18444;0;0;0;0;8;0;8973;0;0;0;0;9;0;9991;0;0;0;0
23.10.20;22:35:00;1;452;9842;0;2;0;12831;0;0;0;0;3;0;8377;0;0;0;0;4;0;11970;0;0;0;0;5;0;0;0;0;0;0;0;0;6;0;21591;2;0;0;0;0;0;7;0;18444;0;0;0;0;8;0;8973;0;0;0;0;9;0;9991;0;0;0;0
23.10.20;22:30:00;1;450;9805;0;2;0;12831;0;0;0;0;3;0;8377;0;0;0;0;4;0;11970;0;0;0;0;5;0;0;0;0;0;0;0;0;6;0;21591;2;0;0;0;0;0;7;0;18444;0;0;0;0;8;0;8973;0;0;0;0;9;0;9991;0;0;0;0
23.10.20;22:25:00;1;341;9767;0;2;0;12831;0;0;0;0;3;0;8377;0;0;0;0;4;0;11970;0;0;0;0;5;0;0;0;0;0;0;0;0;6;0;21591;2;0;0;0;0;0;7;0;18444;0;0;0;0;8;0;8973;0;0;0;0;9;0;9991;0;0;0;0
23.10.20;22:20:00;1;344;9738;0;2;0;12831;0;0;0;0;3;0;8377;0;0;0;0;4;0;11970;0;0;0;0;5;0;0;0;0;0;0;0;0;6;0;21591;2;0;0;0;0;0;7;0;18444;0;0;0;0;8;0;8973;0;0;0;0;9;0;9991;0;0;0;0
23.10.20;22:15:00;1;350;9710;0;2;0;12831;0;0;0;0;3;0;8377;0;0;0;0;4;0;11970;0;0;0;0;5;0;0;0;0;0;0;0;0;6;0;21591;2;0;0;0;0;0;7;0;18444;0;0;0;0;8;0;8973;0;0;0;0;9;0;9991;0;0;0;0
23.10.20;22:10:00;1;340;9680;0;2;0;12831;0;0;0;0;3;0;8377;0;0;0;0;4;0;11970;0;0;0;0;5;0;0;0;0;0;0;0;0;6;0;21591;2;0;0;0;0;0;7;0;18444;0;0;0;0;8;0;8973;0;0;0;0;9;0;9991;0;0;0;0
23.10.20;22:05:00;1;375;9652;0;2;0;12831;0;0;0;0;3;0;8377;0;0;0;0;4;0;11970;0;0;0;0;5;0;0;0;0;0;0;0;0;6;0;21591;2;0;0;0;0;0;7;0;18444;0;0;0;0;8;0;8973;0;0;0;0;9;0;9991;0;0;0;0
23.10.20;22:00:00;1;399;9622;0;2;0;12831;0;0;0;0;3;0;8377;0;0;0;0;4;0;11970;0;0;0;0;5;0;0;0;0;0;0;0;0;6;0;21591;2;0;0;0;0;0;7;0;18444;0;0;0;0;8;0;8973;0;0;0;0;9;0;9991;0;0;0;0
23.10.20;21:55:00;1;413;9588;0;2;0;12831;0;0;0;0;3;0;8377;0;0;0;0;4;0;11970;0;0;0;0;5;0;0;0;0;0;0;0;0;6;0;21591;2;0;0;0;0;0;7;0;18444;0;0;0;0;8;0;8973;0;0;0;0;9;0;9991;0;0;0;0
23.10.20;21:50:00;1;426;9553;0;2;0;12831;0;0;0;0;3;0;8377;0;0;0;0;4;0;11970;0;0;0;0;5;0;0;0;0;0;0;0;0;6;0;21591;2;0;0;0;0;0;7;0;18444;0;0;0;0;8;0;8973;0;0;0;0;9;0;9991;0;0;0;0
23.10.20;21:45:00;1;395;9517;0;2;0;12831;0;0;0;0;3;0;8377;0;0;0;0;4;0;11970;0;0;0;0;5;0;0;0;0;0;0;0;0;6;0;21591;2;0;0;0;0;0;7;0;18444;0;0;0;0;8;0;8973;0;0;0;0;9;0;9991;0;0;0;0
23.10.20;21:40:00;1;442;9485;0;2;0;12831;0;0;0;0;3;0;8377;0;0;0;0;4;0;11970;0;0;0;0;5;0;0;0;0;0;0;0;0;6;0;21591;2;0;0;0;0;0;7;0;18444;0;0;0;0;8;0;8973;0;0;0;0;9;0;9991;0;0;0;0
23.10.20;21:35:00;1;464;9449;0;2;0;12831;0;0;0;0;3;0;8377;0;0;0;0;4;0;11970;0;0;0;0;5;0;0;0;0;0;0;0;0;6;0;21591;2;0;0;0;0;0;7;0;18444;0;0;0;0;8;0;8973;0;0;0;0;9;0;9991;0;0;0;0
23.10.20;21:30:00;1;419;9409;0;2;0;12831;0;0;0;0;3;0;8377;0;0;0;0;4;0;11970;0;0;0;0;5;0;0;0;0;0;0;0;0;6;0;21591;2;0;0;0;0;0;7;0;18444;0;0;0;0;8;0;8973;0;0;0;0;9;0;9991;0;0;0;0
23.10.20;21:25:00;1;363;9374;0;2;0;12831;0;0;0;0;3;0;8377;0;0;0;0;4;0;11970;0;0;0;0;5;0;0;0;0;0;0;0;0;6;0;21591;2;0;0;0;0;0;7;0;18444;0;0;0;0;8;0;8973;0;0;0;0;9;0;9991;0;0;0;0
23.10.20;21:20:00;1;376;9343;0;2;0;12831;0;0;0;0;3;0;8377;0;0;0;0;4;0;11970;0;0;0;0;5;0;0;0;0;0;0;0;0;6;0;21591;2;0;0;0;0;0;7;0;18444;0;0;0;0;8;0;8973;0;0;0;0;9;0;9991;0;0;0;0
23.10.20;21:15:00;1;372;9312;0;2;0;12831;0;0;0;0;3;0;8377;0;0;0;0;4;0;11970;0;0;0;0;5;0;0;0;0;0;0;0;0;6;0;21591;2;0;0;0;0;0;7;0;18444;0;0;0;0;8;0;8973;0;0;0;0;9;0;9991;0;0;0;0
23.10.20;21:10:00;1;354;9281;0;2;0;12831;0;0;0;0;3;0;8377;0;0;0;0;4;0;11970;0;0;0;0;5;0;0;0;0;0;0;0;0;6;0;21591;2;0;0;0;0;0;7;0;18444;0;0;0;0;8;0;8973;0;0;0;0;9;0;9991;0;0;0;0
23.10.20;21:05:00;1;390;9251;0;2;0;12831;0;0;0;0;3;0;8377;0;0;0;0;4;0;11970;0;0;0;0;5;0;0;0;0;0;0;0;0;6;0;21591;2;0;0;0;0;0;7;0;18444;0;0;0;0;8;0;8973;0;0;0;0;9;0;9991;0;0;0;0
23.10.20;21:00:00;1;381;9218;0;2;0;12831;0;0;0;0;3;0;8377;0;0;0;0;4;0;11970;0;0;0;0;5;0;0;0;0;0;0;0;0;6;0;21591;2;0;0;0;0;0;7;0;18444;0;0;0;0;8;0;8973;0;0;0;0;9;0;9991;0;0;0;0
23.10.20;20:55:00;1;417;9187;0;2;0;12831;0;0;0;0;3;0;8377;0;0;0;0;4;0;11970;0;0;0;0;5;0;0;0;0;0;0;0;0;6;0;21591;2;0;0;0;0;0;7;0;18444;0;0;0;0;8;0;8973;0;0;0;0;9;0;9991;0;0;0;0
23.10.20;20:50:00;1;389;9152;0;2;0;12831;0;0;0;0;3;0;8377;0;0;0;0;4;0;11970;0;0;0;0;5;0;0;0;0;0;0;0;0;6;0;21591;2;0;0;0;0;0;7;0;18444;0;0;0;0;8;0;8973;0;0;0;0;9;0;9991;0;0;0;0
23.10.20;20:45:00;1;394;9120;0;2;0;12831;0;0;0;0;3;0;8377;0;0;0;0;4;0;11970;0;0;0;0;5;0;0;0;0;0;0;0;0;6;0;21591;2;0;0;0;0;0;7;0;18444;0;0;0;0;8;0;8973;0;0;0;0;9;0;9991;0;0;0;0
23.10.20;20:40:00;1;444;9087;0;2;0;12831;0;0;0;0;3;0;8377;0;0;0;0;4;0;11970;0;0;0;0;5;0;0;0;0;0;0;0;0;6;0;21591;2;0;0;0;0;0;7;0;18444;0;0;0;0;8;0;8973;0;0;0;0;9;0;9991;0;0;0;0
23.10.20;20:35:00;1;382;9050;0;2;0;12831;0;0;0;0;3;0;8377;0;0;0;0;4;0;11970;0;0;0;0;5;0;0;0;0;0;0;0;0;6;0;21591;2;0;0;0;0;0;7;0;18444;0;0;0;0;8;0;8973;0;0;0;0;9;0;9991;0;0;0;0
23.10.20;20:30:00;1;290;9016;0;2;0;12831;0;0;0;0;3;0;8377;0;0;0;0;4;0;11970;0;0;0;0;5;0;0;0;0;0;0;0;0;6;0;21591;2;0;0;0;0;0;7;0;18444;0;0;0;0;8;0;8973;0;0;0;0;9;0;9991;0;0;0;0
23.10.20;20:25:00;1;249;8992;0;2;0;12831;0;0;0;0;3;0;8377;0;0;0;0;4;0;11970;0;0;0;0;5;0;0;0;0;0;0;0;0;6;0;21591;2;0;0;0;0;0;7;0;18444;0;0;0;0;8;0;8973;0;0;0;0;9;0;9991;0;0;0;0
23.10.20;20:20:00;1;313;8971;0;2;0;12831;0;0;0;0;3;0;8377;0;0;0;0;4;0;11970;0;0;0;0;5;0;0;0;0;0;0;0;0;6;0;21591;2;0;0;0;0;0;7;0;18444;0;0;0;0;8;0;8973;0;0;0;0;9;0;9991;0;0;0;0
23.10.20;20:15:00;1;351;8945;0;2;0;12831;0;0;0;0;3;0;8377;0;0;0;0;4;0;11970;0;0;0;0;5;0;0;0;0;0;0;0;0;6;0;21591;2;0;0;0;0;0;7;0;18444;0;0;0;0;8;0;8973;0;0;0;0;9;0;9991;0;0;0;0
23.10.20;20:10:00;1;417;8915;0;2;0;12831;0;0;0;0;3;0;8377;0;0;0;0;4;0;11970;0;0;0;0;5;0;0;0;0;0;0;0;0;6;0;21591;2;0;0;0;0;0;7;0;18444;0;0;0;0;8;0;8973;0;0;0;0;9;0;9991;0;0;0;0
23.10.20;20:05:00;1;364;8881;0;2;0;12831;0;0;0;0;3;0;8377;0;0;0;0;4;0;11970;0;0;0;0;5;0;0;0;0;0;0;0;0;6;0;21591;2;0;0;0;0;0;7;0;18444;0;0;0;0;8;0;8973;0;0;0;0;9;0;9991;0;0;0;0
23.10.20;20:00:00;1;376;8851;0;2;0;12831;0;0;0;0;3;0;8377;0;0;0;0;4;0;11970;0;0;0;0;5;0;0;0;0;0;0;0;0;6;0;21591;2;0;0;0;0;0;7;0;18444;0;0;0;0;8;0;8973;0;0;0;0;9;0;9991;0;0;0;0
23.10.20;19:55:00;1;327;8812;0;2;0;12831;0;0;0;0;3;0;8377;0;0;0;0;4;0;11970;0;0;0;0;5;0;0;0;0;0;0;0;0;6;0;21591;2;0;0;0;0;0;7;0;18444;0;0;0;0;8;0;8973;0;0;0;0;9;0;9991;0;0;0;0
23.10.20;19:50:00;1;278;8785;0;2;0;12831;0;0;0;0;3;0;8377;0;0;0;0;4;0;11970;0;0;0;0;5;0;0;0;0;0;0;0;0;6;0;21591;2;0;0;0;0;0;7;0;18444;0;0;0;0;8;0;8973;0;0;0;0;9;0;9991;0;0;0;0
23.10.20;19:45:00;1;310;8761;0;2;0;12831;0;0;0;0;3;0;8377;0;0;0;0;4;0;11970;0;0;0;0;5;0;0;0;0;0;0;0;0;6;0;21591;2;0;0;0;0;0;7;0;18444;0;0;0;0;8;0;8973;0;0;0;0;9;0;9991;0;0;0;0
23.10.20;19:40:00;1;302;8735;0;2;0;12831;0;0;0;0;3;0;8377;0;0;0;0;4;0;11970;0;0;0;0;5;0;0;0;0;0;0;0;0;6;0;21591;2;0;0;0;0;0;7;0;18444;0;0;0;0;8;0;8973;0;0;0;0;9;0;9991;0;0;0;0
23.10.20;19:35:00;1;245;8711;0;2;0;12831;0;0;0;0;3;0;8377;0;0;0;0;4;0;11970;0;0;0;0;5;0;0;0;0;0;0;0;0;6;0;21591;2;0;0;0;0;0;7;0;18444;0;0;0;0;8;0;8973;0;0;0;0;9;0;9991;0;0;0;0
23.10.20;19:30:00;1;226;8689;0;2;0;12831;0;0;0;0;3;0;8377;0;0;0;0;4;0;11970;0;0;0;0;5;0;0;0;0;0;0;0;0;6;0;21591;2;0;0;0;0;0;7;0;18444;0;0;0;0;8;0;8973;0;0;0;0;9;0;9991;0;0;0;0
23.10.20;19:25:00;1;230;8670;0;2;0;12831;0;0;0;0;3;0;8377;0;0;0;0;4;0;11970;0;0;0;0;5;0;0;0;0;0;0;0;0;6;0;21591;2;0;0;0;0;0;7;0;18444;0;0;0;0;8;0;8973;0;0;0;0;9;0;9991;0;0;0;0
23.10.20;19:20:00;1;258;8651;0;2;0;12831;0;0;0;0;3;0;8377;0;0;0;0;4;0;11970;0;0;0;0;5;0;0;0;0;0;0;0;0;6;0;21591;2;0;0;0;0;0;7;0;18444;0;0;0;0;8;0;8973;0;0;0;0;9;0;9991;0;0;0;0
23.10.20;19:15:00;1;355;8630;0;2;0;12831;0;0;0;0;3;0;8377;0;0;0;0;4;0;11970;0;0;0;0;5;0;0;0;0;0;0;0;0;6;0;21591;2;0;0;0;0;0;7;0;18444;0;0;0;0;8;0;8973;0;0;0;0;9;0;9991;0;0;0;0
23.10.20;19:10:00;1;284;8600;0;2;0;12831;0;0;0;0;3;0;8377;0;0;0;0;4;0;11970;0;0;0;0;5;0;0;0;0;0;0;0;0;6;0;21591;2;0;0;0;0;0;7;0;18444;0;0;0;0;8;0;8973;0;0;0;0;9;0;9991;0;0;0;0
23.10.20;19:05:00;1;269;8577;0;2;0;12831;0;0;0;0;3;0;8377;0;0;0;0;4;0;11970;0;0;0;0;5;0;0;0;0;0;0;0;0;6;0;21591;2;0;0;0;0;0;7;0;18444;0;0;0;0;8;0;8973;0;0;0;0;9;0;9991;0;0;0;0
23.10.20;19:00:00;1;319;8552;0;2;0;12831;0;0;0;0;3;0;8377;0;0;0;0;4;0;11970;0;0;0;0;5;0;0;0;0;0;0;0;0;6;0;21591;2;0;0;0;0;0;7;0;18444;0;0;0;0;8;0;8973;0;0;0;0;9;0;9991;0;0;0;0
23.10.20;18:55:00;1;290;8524;0;2;0;12831;0;0;0;0;3;0;8377;0;0;0;0;4;0;11970;0;0;0;0;5;0;0;0;0;0;0;0;0;6;0;21591;2;0;0;0;0;0;7;0;18444;0;0;0;0;8;0;8973;0;0;0;0;9;0;9991;0;0;0;0
23.10.20;18:50:00;1;274;8500;0;2;0;12831;0;0;0;0;3;0;8377;0;0;0;0;4;0;11970;0;0;0;0;5;0;0;0;0;0;0;0;0;6;0;21591;2;0;0;0;0;0;7;0;18444;0;0;0;0;8;0;8973;0;0;0;0;9;0;9991;0;0;0;0
23.10.20;18:45:00;1;233;8478;0;2;0;12831;0;0;0;0;3;0;8377;0;0;0;0;4;0;11970;0;0;0;0;5;0;0;0;0;0;0;0;0;6;0;21591;2;0;0;0;0;0;7;0;18444;0;0;0;0;8;0;8973;0;0;0;0;9;0;9991;0;0;0;0
23.10.20;18:40:00;1;230;8457;0;2;0;12831;0;0;0;0;3;0;8377;0;0;0;0;4;0;11970;0;0;0;0;5;0;0;0;0;0;0;0;0;6;0;21591;2;0;0;0;0;0;7;0;18444;0;0;0;0;8;0;8973;0;0;0;0;9;0;9991;0;0;0;0
23.10.20;18:35:00;1;225;8438;0;2;0;12831;0;0;0;0;3;0;8377;0;0;0;0;4;0;11970;0;0;0;0;5;0;0;0;0;0;0;0;0;6;0;21591;2;0;0;0;0;0;7;0;18444;0;0;0;0;8;0;8973;0;0;0;0;9;0;9991;0;0;0;0
23.10.20;18:30:00;1;224;8419;0;2;0;12831;0;0;0;0;3;0;8377;0;0;0;0;4;0;11970;0;0;0;0;5;0;0;0;0;0;0;0;0;6;0;21591;2;0;0;0;0;0;7;0;18444;0;0;0;0;8;0;8973;0;0;0;0;9;0;9991;0;0;0;0
23.10.20;18:25:00;1;236;8400;0;2;0;12831;0;0;0;0;3;0;8377;0;0;0;0;4;0;11970;0;0;0;0;5;0;0;0;0;0;0;0;0;6;0;21591;2;0;0;0;0;0;7;0;18444;0;0;0;0;8;0;8973;0;0;0;0;9;0;9991;0;0;0;0
23.10.20;18:20:00;1;315;8380;0;2;0;12831;0;0;30;2;3;0;8377;0;0;135;10;4;0;11970;0;0;0;0;5;0;0;0;0;0;0;0;0;6;0;21591;2;0;0;0;0;0;7;0;18444;0;0;0;0;8;0;8973;0;0;0;0;9;0;9991;0;0;0;0
23.10.20;18:15:00;1;266;8354;0;2;0;12831;6;0;274;17;3;0;8377;6;0;311;20;4;0;11970;2;0;76;23;5;0;0;0;0;0;0;0;0;6;0;21591;1;0;0;0;0;0;7;0;18444;0;0;0;0;8;0;8973;0;0;0;0;9;0;9991;0;0;0;0
23.10.20;18:10:00;1;285;8331;0;2;0;12831;6;0;346;17;3;0;8377;6;1;420;20;4;0;11970;1;0;164;24;5;0;0;0;0;0;0;0;0;6;0;21591;2;7;1;198;438;30;7;0;18444;0;0;284;19;8;0;8973;0;0;287;18;9;0;9991;0;0;287;15
23.10.20;18:05:00;1;274;8307;0;2;0;12831;6;0;381;18;3;1;8377;6;3;466;21;4;0;11970;3;0;205;24;5;0;0;0;0;0;0;0;0;6;0;21591;23;7;2;279;553;31;7;0;18444;4;1;415;23;8;0;8973;6;0;407;22;9;0;9991;6;1;454;19
23.10.20;18:00:00;1;234;8284;0;2;0;12831;6;0;376;18;3;1;8376;6;3;460;21;4;0;11970;3;0;207;24;5;0;0;0;0;0;0;0;0;6;0;21591;23;2;7;497;548;31;7;0;18444;3;1;400;24;8;0;8973;6;0;409;22;9;0;9991;6;1;438;19
23.10.20;17:55:00;1;249;8264;0;2;0;12831;6;0;395;18;3;1;8376;4;4;479;21;4;0;11970;3;0;196;25;5;0;0;0;0;0;0;0;0;6;51;21591;4;19;47;459;433;32;7;2;18444;6;3;428;24;8;0;8973;6;2;411;22;9;0;9991;6;2;468;19
23.10.20;17:50:00;1;373;8242;0;2;0;12831;6;0;412;19;3;5;8376;3;15;481;21;4;13;11970;3;13;200;25;5;0;0;0;0;0;0;0;0;6;13;21587;1;2;9;474;457;32;7;6;18444;6;9;463;24;8;0;8973;6;4;464;22;9;5;9991;6;13;486;20
23.10.20;17:45:00;1;285;8216;0;2;0;12831;6;0;402;19;3;1;8376;6;5;493;21;4;4;11969;3;4;200;25;5;0;0;0;0;0;0;0;0;6;21;21586;4;11;17;454;457;32;7;3;18444;6;6;446;24;8;0;8973;6;3;432;22;9;0;9991;6;4;491;20
23.10.20;17:40:00;1;398;8190;0;2;0;12831;6;0;402;19;3;2;8376;6;12;468;22;4;1;11968;3;1;200;25;5;0;0;0;0;0;0;0;0;6;49;21585;1;18;31;388;361;33;7;4;18443;3;11;430;25;8;0;8973;6;0;461;22;9;1;9991;4;8;467;20
23.10.20;17:35:00;1;648;8158;0;2;36;12831;6;62;364;20;3;4;8375;6;9;500;22;4;16;11968;3;16;198;26;5;0;0;0;0;0;0;0;0;6;76;21580;4;35;42;348;320;33;7;5;18443;6;12;454;25;8;1;8973;3;7;433;23;9;4;9991;3;14;479;20
23.10.20;17:30:00;1;643;8105;0;2;58;12828;4;91;360;20;3;5;8375;6;10;511;22;4;31;11967;3;32;198;26;5;0;0;0;0;0;0;0;0;6;90;21574;4;32;36;348;320;33;7;42;18442;4;77;369;25;8;1;8973;6;4;470;23;9;6;9990;6;15;493;21
23.10.20;17:25:00;1;963;8051;0;2;69;12823;4;101;357;21;3;11;8375;4;22;488;22;4;34;11964;3;35;198;26;5;0;0;0;0;0;0;0;0;6;98;21566;4;65;68;348;320;33;7;43;18439;4;83;404;26;8;0;8973;6;4;473;23;9;8;9990;6;16;497;21
23.10.20;17:20:00;1;602;7985;0;2;68;12818;4;100;354;21;3;17;8374;3;32;465;22;4;30;11961;3;31;197;26;5;0;0;0;0;0;0;0;0;6;94;21558;4;49;51;348;320;33;7;55;18435;4;82;358;26;8;0;8973;6;6;474;23;9;9;9989;6;17;496;21
23.10.20;17:15:00;1;557;7935;0;2;76;12812;4;109;354;21;3;14;8372;6;24;479;23;4;44;11959;3;45;197;26;5;0;0;0;0;0;0;0;0;6;105;21550;4;46;46;348;320;33;7;57;18430;4;84;361;26;8;1;8973;6;11;452;24;9;3;9988;6;8;522;21
23.10.20;17:10:00;1;550;7889;0;2;97;12806;4;131;356;21;3;53;8371;4;90;435;23;4;64;11955;3;66;197;27;5;0;0;0;0;0;0;0;0;6;126;21541;4;66;69;348;320;33;7;82;18426;4;119;413;26;8;0;8972;6;0;503;24;9;6;9988;6;10;527;22
23.10.20;17:05:00;1;473;7843;0;2;101;12797;4;131;355;22;3;56;8366;4;91;440;24;4;63;11950;3;66;198;27;5;0;0;0;0;0;0;0;0;6;127;21531;4;66;73;348;320;33;7;82;18419;4;119;426;26;8;7;8972;3;9;478;24;9;16;9987;3;27;495;22
23.10.20;17:00:00;1;470;7803;0;2;118;12789;4;153;359;22;3;66;8362;4;101;428;24;4;76;11945;3;79;199;27;5;0;0;0;0;0;0;0;0;6;145;21520;4;64;72;349;320;33;7;103;18412;4;135;392;27;8;13;8971;6;20;455;24;9;21;9985;6;29;516;22
23.10.20;16:55:00;1;484;7764;0;2;146;12779;4;182;360;22;3;83;8356;4;120;472;24;4;101;11938;5;105;209;27;5;0;0;0;0;0;0;0;0;6;173;21507;4;86;87;348;320;33;7;137;18404;4;164;374;27;8;43;8970;4;84;412;25;9;70;9984;4;100;457;23
23.10.20;16:50:00;1;452;7723;0;2;175;12767;4;211;359;22;3;102;8349;4;140;465;24;4;133;11930;5;138;215;28;5;0;0;0;0;0;0;0;0;6;197;21493;4;98;99;348;320;33;7;163;18392;4;193;393;27;8;60;8967;4;94;437;25;9;83;9978;4;116;459;24
23.10.20;16:45:00;1;450;7685;0;2;223;12753;4;262;364;23;3;134;8341;4;175;460;25;4;181;11919;5;188;219;28;5;0;0;0;0;0;0;0;0;6;242;21476;4;119;120;348;320;33;7;214;18379;4;254;440;27;8;84;8962;4;122;438;25;9;117;9971;4;148;486;24
23.10.20;16:40:00;1;485;7647;0;2;215;12734;4;254;362;23;3;129;8330;4;169;483;25;4;170;11904;5;177;217;28;5;0;0;0;0;0;0;0;0;6;234;21456;4;111;113;348;320;33;7;213;18361;4;258;446;27;8;89;8955;4;125;437;25;9;116;9961;4;152;495;24
23.10.20;16:35:00;1;918;7607;0;2;191;12716;4;230;359;23;3;115;8319;4;151;465;25;4;141;11890;5;147;218;28;5;0;0;0;0;0;0;0;0;6;227;21436;4;116;134;348;367;33;7;194;18343;4;227;436;28;8;75;8947;4;106;429;25;9;97;9951;4;132;480;24
23.10.20;16:30:00;1;1551;7512;0;2;240;12700;4;278;366;24;3;145;8309;4;185;475;25;4;191;11878;5;199;218;29;5;0;0;0;0;0;0;0;0;6;341;21416;4;149;200;420;518;33;7;227;18326;4;270;416;28;8;96;8941;4;131;421;25;9;123;9943;4;155;485;25
23.10.20;16:25:00;1;626;7354;0;2;281;12680;4;323;371;24;3;167;8297;4;210;452;26;4;230;11862;5;239;218;29;5;0;0;0;0;0;0;0;0;6;439;21387;4;214;240;554;523;33;7;290;18308;4;326;434;28;8;119;8933;4;155;426;25;9;150;9933;4;188;481;25
23.10.20;16:20:00;1;292;7309;0;2;290;12656;4;334;378;25;3;182;8283;4;224;471;26;4;241;11843;5;251;221;30;5;0;0;0;0;0;0;0;0;6;453;21350;4;208;236;535;531;33;7;304;18283;4;345;445;29;8;126;8923;4;167;452;25;9;168;9921;4;200;485;26
23.10.20;16:15:00;1;320;7286;0;2;275;12632;4;316;369;25;3;168;8268;4;207;479;27;4;224;11822;5;233;219;30;5;0;0;0;0;0;0;0;0;6;429;21312;4;211;240;528;526;34;7;289;18258;4;326;441;29;8;124;8912;4;160;425;26;9;153;9906;4;188;491;26
23.10.20;16:10:00;1;274;7258;0;2;370;12609;4;416;378;26;3;227;8254;4;271;473;27;4;308;11804;5;321;223;30;5;0;0;0;0;0;0;0;0;6;571;21276;4;276;307;545;523;34;7;381;18234;4;421;442;29;8;169;8902;4;203;441;26;9;201;9894;4;236;488;27
23.10.20;16:05:00;1;225;7235;0;2;572;12579;4;626;381;27;3;355;8235;4;404;478;28;4;479;11779;5;499;230;31;5;0;0;0;0;0;0;0;0;6;835;21228;4;398;416;552;534;34;7;616;18204;4;664;449;30;8;279;8889;4;320;444;26;9;327;9878;4;368;494;27
23.10.20;16:00:00;1;311;7215;0;2;753;12531;4;814;388;27;3;474;8205;4;529;489;28;4;636;11738;5;662;231;31;5;0;0;0;0;0;0;0;0;6;1045;21155;4;527;565;564;538;34;7;863;18151;4;913;456;30;8;407;8865;4;451;450;26;9;450;9850;4;501;498;28
23.10.20;15:55:00;1;266;7193;0;2;679;12468;4;738;381;28;3;433;8166;4;484;480;28;4;578;11686;5;602;230;32;5;0;0;0;0;0;0;0;0;6;947;21068;4;471;494;552;529;34;7;780;18079;4;834;442;30;8;369;8831;4;414;457;26;9;420;9812;4;469;507;28
23.10.20;15:50:00;1;300;7170;0;2;717;12412;4;778;386;28;3;453;8130;4;507;484;29;4;608;11638;5;634;229;32;5;0;0;0;0;0;0;0;0;6;1024;20991;4;484;511;562;540;34;7;788;18014;4;841;445;31;8;373;8800;4;411;441;26;9;422;9777;4;471;499;29
23.10.20;15:45:00;1;308;7146;0;2;738;12353;4;797;382;29;3;469;8093;4;521;476;29;4;638;11588;5;664;232;33;5;0;0;0;0;0;0;0;0;6;1115;20905;4;557;570;564;537;34;7;890;17950;4;949;454;31;8;426;8770;4;470;453;27;9;478;9743;4;528;495;29
23.10.20;15:40:00;1;312;7120;0;2;678;12292;4;739;383;30;3;430;8054;4;483;477;29;4;579;11535;5;603;228;33;5;0;0;0;0;0;0;0;0;6;1023;20813;4;507;524;551;534;35;7;785;17876;4;846;456;32;8;370;8734;4;414;458;27;9;422;9703;4;472;495;30
23.10.20;15:35:00;1;345;7094;0;2;704;12235;4;765;386;30;3;446;8018;4;501;484;30;4;599;11487;5;624;232;34;5;0;0;0;0;0;0;0;0;6;1058;20728;4;538;553;562;534;35;7;782;17811;4;838;453;32;8;373;8703;4;411;437;27;9;413;9668;4;465;507;30
23.10.20;15:30:00;1;279;7066;0;2;780;12176;4;843;383;31;3;494;7981;4;552;490;30;4;672;11436;5;700;228;34;5;0;0;0;0;0;0;0;0;6;1161;20639;4;590;614;556;539;35;7;857;17745;4;919;448;33;8;408;8672;4;450;436;27;9;458;9633;4;510;498;31
23.10.20;15:25:00;1;284;7042;0;2;890;12111;4;957;381;32;3;565;7940;4;626;496;31;4;762;11381;5;793;229;35;5;0;0;0;0;0;0;0;0;6;1318;20542;4;641;661;556;540;35;7;992;17674;4;1057;449;34;8;476;8638;4;520;449;28;9;532;9595;4;587;504;32
23.10.20;15:20:00;1;334;7018;0;2;863;12037;4;929;382;34;3;549;7893;4;606;488;32;4;744;11317;5;775;229;35;5;0;0;0;0;0;0;0;0;6;1291;20432;4;658;676;559;538;36;7;966;17591;4;1025;446;34;8;463;8599;4;510;456;28;9;522;9551;4;575;499;32
23.10.20;15:15:00;1;268;6991;0;2;950;11965;4;1019;381;35;3;607;7847;4;668;488;32;4;822;11255;5;856;224;36;5;0;0;0;0;0;0;0;0;6;1374;20324;4;694;697;555;537;36;7;1087;17511;4;1158;448;35;8;523;8560;4;571;457;28;9;590;9507;4;645;500;33
23.10.20;15:10:00;1;275;6970;0;2;1140;11886;4;1219;379;37;3;730;7796;4;792;484;33;4;976;11187;5;1017;226;37;5;0;0;0;0;0;0;0;0;6;1572;20210;4;764;778;550;537;36;7;1346;17420;4;1431;449;36;8;653;8517;4;701;440;28;9;715;9458;4;779;503;34
23.10.20;15:05:00;1;352;6949;0;2;1894;11793;4;2002;384;38;3;1281;7737;4;1364;482;34;4;1656;11108;5;1725;230;38;5;0;0;0;0;0;0;0;0;6;2494;20077;4;1303;1278;566;544;36;7;2393;17311;4;2508;440;36;8;1207;8463;4;1266;439;29;9;1370;9400;4;1458;492;36
23.10.20;15:00:00;1;292;6920;0;2;2062;11641;4;2179;379;39;3;1365;7633;4;1449;469;35;4;1802;10974;5;1877;231;38;5;0;0;0;0;0;0;0;0;6;2757;19870;4;1427;1397;557;534;37;7;2574;17117;4;2712;446;37;8;1243;8365;4;1318;451;29;9;1372;9287;4;1461;492;36
23.10.20;14:55:00;1;297;6896;0;2;2188;11469;4;2315;390;40;3;1408;7520;4;1495;477;35;4;1791;10825;5;1866;229;39;5;0;0;0;0;0;0;0;0;6;2874;19638;4;1473;1469;579;550;37;7;2813;16904;4;2947;416;37;8;1324;8262;4;1396;467;29;9;1564;9174;4;1662;494;37
23.10.20;14:50:00;1;278;6871;0;2;2777;11287;4;2929;386;41;3;1605;7404;4;1696;439;36;4;2001;10676;5;2084;223;39;5;0;0;0;0;0;0;0;0;6;3088;19402;4;1633;1501;563;572;37;7;3642;16671;4;3823;456;38;8;1859;8153;4;1956;463;29;9;2111;9044;4;2241;522;38
23.10.20;14:45:00;1;269;6847;0;2;2826;11055;4;2977;373;42;3;1811;7271;4;1915;475;36;4;2229;10511;5;2321;225;40;5;0;0;0;0;0;0;0;0;6;3636;19108;4;1874;1808;547;547;37;7;3826;16369;4;4018;443;38;8;1857;7999;4;1952;434;29;9;1968;8871;4;2086;488;39
23.10.20;14:40:00;1;304;6824;0;2;3684;10810;4;3870;367;43;3;2395;7114;4;2520;472;37;4;3066;10317;5;3193;225;40;5;0;0;0;0;0;0;0;0;6;4922;18770;4;2551;2484;545;535;37;7;5086;16040;4;5332;433;38;8;2441;7838;4;2553;431;29;9;2686;8702;4;2835;489;39
23.10.20;14:35:00;1;239;6799;0;2;3652;10502;4;3836;371;42;3;2372;6914;4;2496;476;36;4;3091;10061;5;3220;223;40;5;0;0;0;0;0;0;0;0;6;4992;18369;4;2575;2503;550;530;37;7;5017;15615;4;5261;441;38;8;2473;7635;4;2592;437;29;9;2730;8477;4;2883;488;39
23.10.20;14:30:00;1;301;6778;0;2;3375;10198;4;3551;374;42;3;2197;6716;4;2317;475;36;4;2913;9803;5;3034;226;40;5;0;0;0;0;0;0;0;0;6;4716;17954;4;2437;2367;551;532;37;7;4703;15198;4;4940;440;37;8;2319;7427;4;2432;436;29;9;2571;8248;4;2713;488;39
23.10.20;14:25:00;1;267;6753;0;2;3436;9917;4;3613;373;42;3;2232;6533;4;2352;472;36;4;3007;9561;5;3132;223;40;5;0;0;0;0;0;0;0;0;6;4809;17562;4;2470;2416;546;526;37;7;4741;14806;4;4967;438;37;8;2339;7234;4;2446;433;28;9;2584;8034;4;2725;484;39
23.10.20;14:20:00;1;933;6731;0;2;3575;9629;4;3758;378;42;3;2332;6347;4;2454;474;36;4;3203;9309;5;3337;224;39;5;0;0;0;0;0;0;0;0;6;5105;17157;4;2628;2554;546;529;37;7;4960;14409;4;5194;436;37;8;2442;7038;4;2560;437;28;9;1545;7819;4;1628;272;22
23.10.20;14:15:00;1;593;6644;0;2;3427;9331;4;3601;374;41;3;2227;6152;4;2344;467;35;4;3106;9042;5;3235;224;39;5;0;0;0;0;0;0;0;0;6;4989;16731;4;2580;2507;547;533;37;7;4810;13996;4;5049;437;37;8;2359;6835;4;2471;434;28;9;2633;7592;4;2776;480;38
23.10.20;14:10:00;1;349;6584;0;2;3566;9047;4;3742;372;41;3;2314;5967;4;2437;476;35;4;3233;8782;5;3368;225;39;5;0;0;0;0;0;0;0;0;6;5132;16322;4;2641;2573;546;534;36;7;4815;13593;4;5052;435;36;8;2428;6637;4;2540;440;28;9;2690;7370;4;2837;484;38
23.10.20;14:05:00;1;371;6555;0;2;3563;8750;4;3742;376;40;3;2311;5775;4;2431;470;34;4;3219;8514;5;3353;223;38;5;0;0;0;0;0;0;0;0;6;5202;15895;4;2683;2618;551;535;36;7;5043;13196;4;5283;437;36;8;2475;6436;4;2592;442;28;9;2765;7148;4;2910;481;38